When you browse on this site, cookies collect data to enhance your experience and personalize the content and advertising you see.
Visit our Privacy Policy to learn more. By continuing to use the site, you agree to this use of cookies and data.
  • In Hungary
  • List of Countries
  • For 7 days
  • Water Temperature
  • Satellite Maps
  • Weather Map
  • News
  • Weather Widgets
  • user-avatar
    Login

    Hourly Weather Tolna

    Today, 24 June, Monday

    Time Temperature Precipitation Wind Pressure Humidity
    00:00 +19°C° 0.3 mm 2 mps 753 mmHg 94%
    01:00 +19°C° 0 mm 3 mps 754 mmHg 92%
    02:00 +18°C° 0 mm 3 mps 753 mmHg 93%
    03:00 +18°C° 0 mm 3 mps 753 mmHg 94%
    04:00 +18°C° 0 mm 3 mps 753 mmHg 94%
    05:00 +19°C° 0 mm 3 mps 754 mmHg 92%
    06:00 +20°C° 0 mm 3 mps 754 mmHg 89%
    07:00 +21°C° 0 mm 4 mps 755 mmHg 87%
    08:00 +22°C° 0 mm 4 mps 755 mmHg 85%
    09:00 +24°C° 0 mm 3 mps 755 mmHg 84%
    10:00 +24°C° 0 mm 3 mps 755 mmHg 83%
    11:00 +25°C° 0.6 mm 4 mps 755 mmHg 80%
    12:00 +26°C° 0.6 mm 4 mps 755 mmHg 78%
    13:00 +27°C° 0.6 mm 4 mps 755 mmHg 75%
    14:00 +28°C° 2 mm 4 mps 755 mmHg 76%
    15:00 +28°C° 2 mm 4 mps 755 mmHg 77%
    16:00 +28°C° 2 mm 4 mps 755 mmHg 78%
    17:00 +27°C° 2.4 mm 4 mps 755 mmHg 81%
    18:00 +26°C° 2.4 mm 4 mps 755 mmHg 85%
    19:00 +25°C° 2.4 mm 4 mps 756 mmHg 88%
    20:00 +23°C° 0.8 mm 4 mps 756 mmHg 89%
    21:00 +22°C° 0.8 mm 3 mps 756 mmHg 91%
    22:00 +21°C° 0.8 mm 3 mps 756 mmHg 93%
    23:00 +21°C° 0 mm 3 mps 756 mmHg 93%

    Tomorrow, 25 June, Tuesday

    Time Temperature Precipitation Wind Pressure Humidity
    00:00 +20°C° 0 mm 3 mps 757 mmHg 93%
    01:00 +19°C° 0 mm 2 mps 757 mmHg 92%
    02:00 +19°C° 0.1 mm 2 mps 757 mmHg 93%
    03:00 +19°C° 0.1 mm 2 mps 757 mmHg 93%
    04:00 +19°C° 0.1 mm 2 mps 757 mmHg 93%
    05:00 +20°C° 0 mm 2 mps 757 mmHg 91%
    06:00 +21°C° 0 mm 3 mps 757 mmHg 89%
    07:00 +22°C° 0 mm 3 mps 758 mmHg 87%
    08:00 +24°C° 0 mm 3 mps 758 mmHg 83%
    09:00 +26°C° 0 mm 3 mps 758 mmHg 79%
    10:00 +27°C° 0 mm 3 mps 758 mmHg 75%
    11:00 +29°C° 0 mm 3 mps 758 mmHg 68%
    12:00 +30°C° 0 mm 2 mps 758 mmHg 63%
    13:00 +31°C° 0 mm 2 mps 758 mmHg 59%
    14:00 +31°C° 0 mm 3 mps 758 mmHg 60%
    15:00 +31°C° 0 mm 3 mps 758 mmHg 61%
    16:00 +31°C° 0 mm 3 mps 757 mmHg 62%
    17:00 +30°C° 0 mm 3 mps 758 mmHg 68%
    18:00 +29°C° 0 mm 3 mps 758 mmHg 73%
    19:00 +27°C° 0 mm 2 mps 758 mmHg 79%
    20:00 +26°C° 0 mm 2 mps 758 mmHg 82%
    21:00 +25°C° 0 mm 2 mps 758 mmHg 84%
    22:00 +24°C° 0 mm 1 mps 759 mmHg 86%
    23:00 +24°C° 0 mm 1 mps 759 mmHg 88%

    Day after tomorrow, 26 June, Wednesday

    Time Temperature Precipitation Wind Pressure Humidity
    00:00 +23°C° 0 mm 2 mps 759 mmHg 89%
    01:00 +23°C° 0 mm 2 mps 758 mmHg 91%
    02:00 +23°C° 0 mm 2 mps 758 mmHg 92%
    03:00 +21°C° 0 mm 2 mps 758 mmHg 92%
    04:00 +21°C° 0 mm 2 mps 758 mmHg 93%
    05:00 +23°C° 0 mm 2 mps 758 mmHg 89%
    06:00 +25°C° 0 mm 2 mps 759 mmHg 86%
    07:00 +26°C° 0 mm 2 mps 759 mmHg 82%
    08:00 +27°C° 0 mm 2 mps 759 mmHg 76%
    09:00 +29°C° 0 mm 2 mps 759 mmHg 70%
    10:00 +30°C° 0 mm 2 mps 759 mmHg 64%
    11:00 +31°C° 0 mm 1 mps 759 mmHg 61%
    12:00 +32°C° 0 mm 1 mps 758 mmHg 58%
    13:00 +32°C° 0 mm 1 mps 758 mmHg 55%
    14:00 +33°C° 0 mm 1 mps 758 mmHg 54%
    15:00 +33°C° 0 mm 1 mps 757 mmHg 54%
    16:00 +33°C° 0 mm 1 mps 757 mmHg 53%
    17:00 +31°C° 0 mm 1 mps 757 mmHg 59%
    18:00 +30°C° 0 mm 1 mps 757 mmHg 64%
    19:00 +29°C° 0 mm 1 mps 757 mmHg 70%
    20:00 +27°C° 0 mm 1 mps 757 mmHg 73%
    21:00 +26°C° 0 mm 1 mps 757 mmHg 76%
    22:00 +23°C° 0 mm 0 mps 757 mmHg 79%
    23:00 +25°C° 0 mm 1 mps 757 mmHg 81%

    27 June, Thursday

    Time Temperature Precipitation Wind Pressure Humidity
    00:00 +24°C° 0 mm 1 mps 757 mmHg 82%
    01:00 +24°C° 0 mm 1 mps 756 mmHg 84%
    02:00 +23°C° 0 mm 1 mps 756 mmHg 85%
    03:00 +23°C° 0 mm 1 mps 756 mmHg 86%
    04:00 +23°C° 0 mm 1 mps 756 mmHg 87%
    05:00 +24°C° 0 mm 1 mps 756 mmHg 83%
    06:00 +26°C° 0 mm 1 mps 755 mmHg 79%
    07:00 +27°C° 0 mm 1 mps 755 mmHg 75%
    08:00 +29°C° 0 mm 2 mps 755 mmHg 69%
    09:00 +30°C° 0 mm 2 mps 755 mmHg 63%
    10:00 +31°C° 0 mm 2 mps 755 mmHg 57%
    11:00 +33°C° 0 mm 3 mps 755 mmHg 56%
    12:00 +33°C° 0 mm 3 mps 754 mmHg 55%
    13:00 +34°C° 0 mm 3 mps 753 mmHg 54%
    14:00 +34°C° 0 mm 3 mps 753 mmHg 57%
    15:00 +34°C° 0 mm 3 mps 753 mmHg 60%
    16:00 +34°C° 0 mm 3 mps 752 mmHg 62%
    17:00 +31°C° 0.4 mm 3 mps 752 mmHg 68%
    18:00 +30°C° 0.4 mm 3 mps 752 mmHg 74%
    19:00 +28°C° 0.4 mm 3 mps 751 mmHg 80%
    20:00 +27°C° 0.2 mm 3 mps 752 mmHg 83%
    21:00 +26°C° 0.2 mm 4 mps 752 mmHg 85%
    22:00 +25°C° 0.2 mm 4 mps 752 mmHg 88%
    23:00 +23°C° 0 mm 4 mps 752 mmHg 88%

    28 June, Friday

    Time Temperature Precipitation Wind Pressure Humidity
    00:00 +21°C° 0 mm 4 mps 752 mmHg 88%
    01:00 +20°C° 0 mm 4 mps 753 mmHg 87%
    02:00 +19°C° 0 mm 4 mps 753 mmHg 87%
    03:00 +19°C° 0 mm 4 mps 753 mmHg 86%
    04:00 +18°C° 0 mm 4 mps 753 mmHg 85%
    05:00 +19°C° 0 mm 4 mps 753 mmHg 81%
    06:00 +20°C° 0 mm 4 mps 753 mmHg 78%
    07:00 +21°C° 0 mm 4 mps 754 mmHg 75%
    08:00 +22°C° 0 mm 5 mps 754 mmHg 70%
    09:00 +25°C° 0 mm 5 mps 754 mmHg 66%
    10:00 +26°C° 0 mm 6 mps 754 mmHg 61%
    11:00 +26°C° 0 mm 6 mps 754 mmHg 59%
    12:00 +27°C° 0 mm 6 mps 753 mmHg 58%
    13:00 +27°C° 0 mm 6 mps 753 mmHg 57%
    14:00 +27°C° 0 mm 6 mps 753 mmHg 57%
    15:00 +27°C° 0 mm 6 mps 753 mmHg 57%
    16:00 +27°C° 0 mm 5 mps 753 mmHg 58%
    17:00 +26°C° 0 mm 4 mps 753 mmHg 64%
    18:00 +25°C° 0 mm 4 mps 753 mmHg 70%
    19:00 +22°C° 0 mm 3 mps 753 mmHg 76%
    20:00 +21°C° 0 mm 3 mps 753 mmHg 76%
    21:00 +20°C° 0 mm 3 mps 753 mmHg 76%
    22:00 +19°C° 0 mm 3 mps 754 mmHg 76%
    23:00 +19°C° 0 mm 3 mps 754 mmHg 77%

    29 June, Saturday

    Time Temperature Precipitation Wind Pressure Humidity
    00:00 +18°C° 0 mm 3 mps 754 mmHg 79%
    01:00 +18°C° 0 mm 3 mps 754 mmHg 81%
    02:00 +17°C° 0 mm 3 mps 754 mmHg 81%
    03:00 +16°C° 0 mm 3 mps 754 mmHg 81%
    04:00 +14°C° 0 mm 3 mps 754 mmHg 81%
    05:00 +17°C° 0 mm 3 mps 754 mmHg 79%
    06:00 +18°C° 0 mm 3 mps 754 mmHg 76%
    07:00 +20°C° 0 mm 4 mps 755 mmHg 73%
    08:00 +21°C° 0 mm 3 mps 755 mmHg 68%
    09:00 +22°C° 0 mm 3 mps 755 mmHg 64%
    10:00 +25°C° 0 mm 2 mps 755 mmHg 59%
    11:00 +25°C° 0 mm 2 mps 755 mmHg 56%
    12:00 +26°C° 0 mm 2 mps 754 mmHg 53%
    13:00 +27°C° 0 mm 2 mps 754 mmHg 50%
    14:00 +27°C° 0 mm 2 mps 754 mmHg 51%
    15:00 +27°C° 0 mm 2 mps 754 mmHg 52%
    16:00 +27°C° 0 mm 2 mps 753 mmHg 53%
    17:00 +26°C° 0 mm 2 mps 753 mmHg 58%
    18:00 +25°C° 0 mm 1 mps 753 mmHg 64%
    19:00 +24°C° 0 mm 1 mps 753 mmHg 69%
    20:00 +23°C° 0 mm 1 mps 754 mmHg 71%
    21:00 +21°C° 0 mm 2 mps 754 mmHg 72%
    22:00 +20°C° 0 mm 2 mps 754 mmHg 73%
    23:00 +20°C° 0 mm 2 mps 754 mmHg 74%
    Show more